Location: Mount Tamalpais State Park
(37.9108°N, 122.6128°W)
Time: 09:31:56
(UTC-08:00)

Cosmos 1814 Rocket - Visible Passes

Search period start: 22 February 2017 00:00
Search period end: 04 March 2017 00:00
Orbit: 745 x 787 km, 74.1° (Epoch: 22 February)

Date Brightness Start Highest point End Pass type
(mag) Time Alt. Az. Time Alt. Az. Time Alt. Az.
22 Feb 6.3 20:47:53 10° NNW 20:48:44 15° N 20:48:44 15° N visible
23 Feb 5.8 20:10:36 10° N 20:12:21 20° N 20:12:21 20° N visible
24 Feb 5.5 19:33:39 10° N 19:36:05 19° NE 19:36:05 19° NE visible
24 Feb 6.4 21:15:00 10° NNW 21:16:21 18° NW 21:16:21 18° NW visible
25 Feb 5.7 18:57:22 10° NNE 18:59:45 13° ENE 18:59:53 13° ENE visible
25 Feb 5.2 20:37:12 10° NNW 20:40:09 35° NNW 20:40:09 35° NNW visible
26 Feb 4.1 19:59:41 10° NNW 20:04:05 55° NNE 20:04:05 55° NNE visible
26 Feb 6.9 21:43:51 10° WNW 21:44:23 11° WNW 21:44:23 11° WNW visible
27 Feb 4.5 19:22:26 10° N 19:27:09 35° ENE 19:28:10 32° E visible
27 Feb 6.0 21:04:51 10° NW 21:08:28 24° W 21:08:28 24° W visible
28 Feb 5.2 18:45:32 10° NNE 18:49:22 21° ENE 18:52:27 13° ESE visible
28 Feb 4.9 20:26:43 10° NNW 20:31:35 43° WSW 20:32:46 37° SW visible
01 Mar 4.0 19:48:58 10° NNW 19:54:08 80° WSW 19:57:19 23° S visible
02 Mar 4.0 19:11:30 10° N 19:16:34 57° ENE 19:21:35 10° SSE visible
02 Mar 6.7 20:55:20 10° WNW 20:57:59 14° W 21:00:38 10° SW visible
03 Mar 4.7 18:34:17 10° N 18:38:54 32° ENE 18:43:28 10° SE visible
03 Mar 6.0 20:16:32 10° NW 20:20:44 26° W 20:24:55 10° SSW visible
